Bowling Green, KY

8:05 AM CDT on June 25, 2017 (GMT -0500)
Bowling Green-Warren County Regional

Weather History for KBWG - March, 2014

Change the Weather History Date:

Thursday, March 13, 2014

  Actual Average Record
Temperature  
Mean Temperature 37 °F 48 °F  
Max Temperature 46 °F 59 °F 85 °F (1918)
Min Temperature 28 °F 36 °F 10 °F (1960)
Degree Days  
Heating Degree Days 28 18  
Month to date heating degree days 254  
Since 1 July heating degree days 3452  
Cooling Degree Days 0 0  
Month to date cooling degree days 0  
Year to date cooling degree days 0  
Moisture  
Dew Point 19 °F    
Average Humidity 52    
Maximum Humidity 75    
Minimum Humidity 29    
Precipitation  
Precipitation 0.00 in 0.14 in 2.00 in (1927)
Month to date precipitation 1.76  
Year to date precipitation 9.33  
Snow  
Snow 0.00 in 0.10 in 2.30 in (1949)
Month to date snowfall 0.5  
Since 1 July snowfall 8.3  
Snow Depth -    
Sea Level Pressure  
Sea Level Pressure 30.20 in    
Wind  
Wind Speed 6 mph (WSW)    
Max Wind Speed 12 mph    
Max Gust Speed 17 mph    
Visibility 10 miles    
Events      
T = Trace of Precipitation, MM = Missing Value Source: NWS Daily Summary

Daily Weather History Graph

Daily Weather History Graph

Search for Another Location

Airport or City:

Trip Planner

Search our weather history database for the weather conditions in past years. The results will help you decide how hot, cold, wet, or windy it might be!

Date:

Astronomy

Mar. 13, 2014 Rise Set
Actual Time 6:59 AM CDT 6:51 PM CDT
Civil Twilight 6:33 AM CDT 7:17 PM CDT
Nautical Twilight 6:03 AM CDT 7:47 PM CDT
Astronomical Twilight 5:33 AM CDT 8:17 PM CDT
Moon 4:19 PM CDT (3/13) 5:02 AM CDT (3/13)
Length of Visible Light 12h 43m
Length of Day
11h 51m
Waxing Gibbous, 91% of the Moon is Illuminated
Mar 13
Waxing Gibbous
Mar 16
Full
Mar 23
Last Quarter
Mar 30
New
Apr 7
First Quarter

Hourly Weather History & Observations

Time (CDT) Temp. Windchill Dew Point Humidity Pressure Visibility Wind Dir Wind Speed Gust Speed Precip Events Conditions
12:03 AM 34.0 °F 26.6 °F 25.0 °F 70% 30.09 in 10.0 mi NW 9.2 mph - N/A   Overcast
12:53 AM 34.0 °F 25.5 °F 25.0 °F 70% 30.11 in 10.0 mi NW 11.5 mph 17.3 mph N/A   Overcast
1:53 AM 33.1 °F 26.1 °F 25.0 °F 72% 30.12 in 10.0 mi NW 8.1 mph - N/A   Overcast
2:53 AM 32.0 °F 27.5 °F 23.0 °F 69% 30.12 in 10.0 mi NW 4.6 mph - N/A   Partly Cloudy
3:53 AM 30.9 °F 27.5 °F 21.9 °F 69% 30.12 in 10.0 mi NW 3.5 mph - N/A   Clear
4:53 AM 28.9 °F 25.2 °F 21.0 °F 72% 30.14 in 10.0 mi NW 3.5 mph - N/A   Clear
5:53 AM 28.9 °F 23.9 °F 21.0 °F 72% 30.18 in 10.0 mi NW 4.6 mph - N/A   Clear
6:53 AM 28.0 °F 24.2 °F 21.0 °F 75% 30.22 in 10.0 mi NNW 3.5 mph - N/A   Clear
7:53 AM 28.9 °F - 21.0 °F 72% 30.24 in 10.0 mi Calm Calm - N/A   Clear
8:53 AM 32.0 °F 28.7 °F 21.9 °F 66% 30.28 in 10.0 mi Variable 3.5 mph - N/A   Clear
9:53 AM 35.1 °F - 19.9 °F 54% 30.29 in 10.0 mi North - - N/A   Partly Cloudy
10:53 AM 35.1 °F 32.2 °F 18.0 °F 50% 30.29 in 10.0 mi Variable 3.5 mph - N/A   Scattered Clouds
11:53 AM 37.9 °F 35.5 °F 17.1 °F 43% 30.29 in 10.0 mi Variable 3.5 mph - N/A   Clear
12:53 PM 39.9 °F 36.7 °F 14.0 °F 35% 30.27 in 10.0 mi NNE 4.6 mph - N/A   Clear
1:53 PM 41.0 °F 39.0 °F 15.1 °F 35% 30.25 in 10.0 mi Variable 3.5 mph - N/A   Clear
2:53 PM 45.0 °F - 15.1 °F 30% 30.22 in 10.0 mi North - - N/A   Clear
3:53 PM 46.0 °F 43.1 °F 15.1 °F 29% 30.21 in 10.0 mi SSE 5.8 mph - N/A   Clear
4:53 PM 46.0 °F 41.9 °F 16.0 °F 30% 30.20 in 10.0 mi South 8.1 mph - N/A   Clear
5:53 PM 46.0 °F 41.9 °F 15.1 °F 29% 30.20 in 10.0 mi SSW 8.1 mph - N/A   Clear
6:53 PM 44.1 °F 39.5 °F 17.1 °F 34% 30.20 in 10.0 mi South 8.1 mph - N/A   Clear
7:53 PM 41.0 °F 38.0 °F 18.0 °F 40% 30.19 in 10.0 mi SSE 4.6 mph - N/A   Clear
8:53 PM 37.0 °F 34.5 °F 19.9 °F 50% 30.18 in 10.0 mi SE 3.5 mph - N/A   Clear
9:53 PM 39.9 °F 33.9 °F 18.0 °F 41% 30.17 in 10.0 mi SSE 9.2 mph - N/A   Clear
10:53 PM 39.0 °F 34.0 °F 18.0 °F 43% 30.17 in 10.0 mi SSE 6.9 mph - N/A   Clear
11:53 PM 39.0 °F 34.0 °F 18.0 °F 43% 30.15 in 10.0 mi South 6.9 mph - N/A   Clear